Location: L�Ave Maria
(50.7161°N, 1.5911°E)
Time: 23:33:29
(UTC+00:00)

MTI - Pass Details

Date: 10 July 2020
Orbit: 393 x 404 km, 97.5° (Epoch: 14 August)

Event Time Altitude Azimuth Distance (km) Brightness Sun altitude
Rises 22:09:24 0° 14° (NNE) 2,315 8.4 -13.3°
Reaches altitude 10° 22:11:23 10° 16° (NNE) 1,450 7.2 -13.4°
Maximum altitude 22:14:29 80° 102° (ESE) 408 3.5 -13.6°
Enters shadow 22:16:12 24° 188° (S) 871 4.9 -13.7°
